Location: Ahstedt
(52.2048°N, 10.1060°E)
Time: 00:01:19
(UTC+00:00)

Cosmos 2227 Rocket - Pass Details

Date: 18 January 2026
Orbit: 837 x 845 km, 71.0° (Epoch: 17 February)

Event Time Altitude Azimuth Distance (km) Brightness Sun altitude
Exits shadow 05:26:23 - 337° (NNW) 2,667 4.5 -16.6°
Reaches altitude 10° 05:27:37 10° 348° (NNW) 2,471 4.4 -16.4°
Maximum altitude 05:29:43 12° 10° (N) 2,332 4.5 -16.1°
Drops below altitude 10° 05:31:49 10° 32° (NNE) 2,471 4.9 -15.8°
Sets 05:36:08 0° 64° (ENE) 3,407 6.2 -15.2°
